KB2EAR-13 Weather Reports


Display with metric or nautical units.
time (UTC)temp
F
wind
direction
speed
MPH
gust
MPH
rain 1hr
in
rain 24hr
in
rain mn
in
humidity
%
barometer
mb
20260504185558 71 270 3.0 11.0 0.00 0.00 0.00 36 1011.3
20260504185517 71 270 3.0 11.0 0.00 0.00 0.00 36 1011.3
20260504185114 71 270 3.0 8.0 0.00 0.00 0.00 37 1011.5
20260504185017 71 270 3.0 8.0 0.00 0.00 0.00 37 1011.5
20260504184517 71 248 4.0 9.0 0.00 0.00 0.00 38 1011.4
20260504184119 71 248 5.0 13.0 0.00 0.00 0.00 37 1011.4
20260504184017 71 248 5.0 13.0 0.00 0.00 0.00 37 1011.4
20260504183637 71 270 3.0 8.0 0.00 0.00 0.00 39 1011.5
20260504183517 71 270 3.0 8.0 0.00 0.00 0.00 39 1011.5
20260504183150 71 270 4.0 11.0 0.00 0.00 0.00 37 1011.7
20260504183017 71 270 4.0 11.0 0.00 0.00 0.00 37 1011.7
20260504182517 71 248 4.0 13.0 0.00 0.00 0.00 38 1011.7
20260504182017 71 270 3.0 6.0 0.00 0.00 0.00 38 1011.8
20260504181603 70 248 3.0 8.0 0.00 0.00 0.00 40 1011.7
20260504181517 70 248 3.0 8.0 0.00 0.00 0.00 40 1011.7
20260504181017 70 248 4.0 12.0 0.00 0.00 0.00 38 1011.9
20260504180605 70 270 5.0 13.0 0.00 0.00 0.00 39 1011.9
20260504180517 70 270 5.0 13.0 0.00 0.00 0.00 39 1011.9
20260504180122 71 248 4.0 9.0 0.00 0.00 0.00 37 1012.0
20260504180017 71 248 4.0 9.0 0.00 0.00 0.00 37 1012.0
20260504175608 71 270 2.0 8.0 0.00 0.00 0.00 37 1012.3
20260504175517 71 270 2.0 8.0 0.00 0.00 0.00 37 1012.3
20260504175145 70 248 4.0 11.0 0.00 0.00 0.00 39 1012.1
20260504175017 70 248 4.0 11.0 0.00 0.00 0.00 39 1012.1
20260504174517 70 270 3.0 8.0 0.00 0.00 0.00 38 1012.1
20260504174017 70 315 3.0 11.0 0.00 0.00 0.00 40 1012.3
20260504173634 70 270 4.0 9.0 0.00 0.00 0.00 38 1012.2
20260504173517 70 270 4.0 9.0 0.00 0.00 0.00 38 1012.2
20260504173017 70 270 4.0 9.0 0.00 0.00 0.00 38 1012.4
20260504172728 70 293 3.0 12.0 0.00 0.00 0.00 41 1012.2
20260504172517 70 293 3.0 12.0 0.00 0.00 0.00 41 1012.2
20260504172017 69 270 3.0 8.0 0.00 0.00 0.00 39 1012.5
20260504171602 69 248 4.0 13.0 0.00 0.00 0.00 39 1012.3
20260504171517 69 248 4.0 13.0 0.00 0.00 0.00 39 1012.3
20260504171121 68 270 4.0 13.0 0.00 0.00 0.00 40 1012.4
20260504171017 68 270 4.0 13.0 0.00 0.00 0.00 40 1012.4
20260504170611 69 270 6.0 13.0 0.00 0.00 0.00 38 1012.6
20260504170517 69 270 6.0 13.0 0.00 0.00 0.00 38 1012.6
20260504170104 69 270 4.0 15.0 0.00 0.00 0.00 39 1012.6
20260504160148 67 270 4.0 12.0 0.00 0.00 0.00 43 1013.7
20260504151124 65 270 3.0 7.0 0.00 0.00 0.00 46 1013.8
20260504151017 65 270 3.0 7.0 0.00 0.00 0.00 46 1013.8
20260504150914 65 270 3.0 8.0 0.00 0.00 0.00 49 1013.8
20260504150517 65 270 3.0 8.0 0.00 0.00 0.00 49 1013.8
20260504141017 62 248 4.0 11.0 0.00 0.00 0.00 52 1014.3
20260504140517 62 270 3.0 7.0 0.00 0.00 0.00 52 1014.3
20260504130517 59 270 2.0 7.0 0.00 0.00 0.00 61 1014.9
20260504130122 58 270 3.0 9.0 0.00 0.00 0.00 62 1015.0
20260504110517 47 270 2.0 7.0 0.00 0.00 0.00 76 1015.4
20260504100516 45 248 2.0 6.0 0.00 0.00 0.00 76 1015.2
20260504100149 45 248 1.0 4.0 0.00 0.00 0.00 76 1015.3
20260504081516 48 248 3.0 5.0 0.00 0.00 0.00 59 1015.0
20260504081016 48 248 2.0 6.0 0.00 0.00 0.00 58 1014.8
20260504080516 48 248 2.0 5.0 0.00 0.00 0.00 58 1014.8
20260504050516 49 248 1.0 7.0 0.00 0.00 0.00 55 1014.5
20260504050016 49 248 1.0 3.0 0.00 0.00 0.00 56 1014.5
20260504045516 49 248 1.0 3.0 0.00 0.00 0.00 55 1014.4
20260504045016 49 248 1.0 3.0 0.00 0.00 0.00 55 1014.3
20260504044516 49 248 1.0 2.0 0.00 0.00 0.00 55 1014.3
20260504044016 49 248 1.0 3.0 0.00 0.00 0.00 55 1014.4
20260504043621 50 248 1.0 3.0 0.00 0.00 0.00 55 1014.4
20260504043516 50 248 1.0 3.0 0.00 0.00 0.00 55 1014.4
20260504043016 50 248 1.0 2.0 0.00 0.00 0.00 55 1014.2
20260504042709 50 248 1.0 1.0 0.00 0.00 0.00 54 1014.2
20260504042516 50 248 1.0 1.0 0.00 0.00 0.00 54 1014.2
20260504042016 50 248 1.0 2.0 0.00 0.00 0.00 54 1014.1
20260504041516 50 0.0 1.0 0.00 0.00 0.00 54 1014.1
20260504041016 50 248 1.0 2.0 0.00 0.00 0.00 54 1014.1
20260504040516 50 248 1.0 2.0 0.00 0.00 0.00 54 1014.1
20260504040149 50 248 1.0 2.0 0.00 0.00 0.00 53 1014.1
20260504040037 50 248 1.0 3.0 0.00 0.00 0.00 53 1014.0
20260504035516 50 248 1.0 3.0 0.00 0.00 0.00 53 1014.0
20260504035016 50 248 1.0 2.0 0.00 0.00 0.00 53 1013.9
20260504034516 51 248 1.0 3.0 0.00 0.00 0.00 53 1013.9
20260504034016 51 248 1.0 3.0 0.00 0.00 0.00 53 1013.9
20260504033516 51 0.0 2.0 0.00 0.00 0.00 52 1013.9
20260504033016 51 248 1.0 3.0 0.00 0.00 0.00 52 1014.0
20260504032516 51 248 2.0 4.0 0.00 0.00 0.00 52 1014.0
20260504032016 51 248 1.0 4.0 0.00 0.00 0.00 52 1013.9
20260504031518 51 248 1.0 4.0 0.00 0.00 0.00 52 1013.8
20260504031018 51 248 1.0 2.0 0.00 0.00 0.00 52 1013.8
20260504030518 51 248 1.0 2.0 0.00 0.00 0.00 51 1013.7
20260504030018 51 248 1.0 2.0 0.00 0.00 0.00 51 1013.7
20260504025518 52 248 1.0 2.0 0.00 0.00 0.00 50 1013.8
20260504025018 52 248 1.0 2.0 0.00 0.00 0.00 50 1013.8
20260504024518 52 248 1.0 3.0 0.00 0.00 0.00 49 1013.7
20260504024018 52 248 1.0 3.0 0.00 0.00 0.00 49 1013.8
20260504023518 52 248 1.0 4.0 0.00 0.00 0.00 49 1013.9
20260504023018 52 248 1.0 3.0 0.00 0.00 0.00 49 1013.8
20260504022906 52 248 1.0 3.0 0.00 0.00 0.00 49 1013.8
20260504022518 52 248 1.0 3.0 0.00 0.00 0.00 49 1013.8
20260504022018 52 248 1.0 3.0 0.00 0.00 0.00 48 1013.7
20260504021518 53 248 1.0 2.0 0.00 0.00 0.00 48 1013.7
20260504021018 53 248 1.0 2.0 0.00 0.00 0.00 47 1013.7
20260504020518 53 248 1.0 2.0 0.00 0.00 0.00 47 1013.8
20260504020018 53 248 1.0 4.0 0.00 0.00 0.00 46 1013.8
20260504015518 53 248 1.0 3.0 0.00 0.00 0.00 46 1013.7
20260504015018 53 248 1.0 3.0 0.00 0.00 0.00 46 1013.7
20260504014518 53 248 1.0 4.0 0.00 0.00 0.00 46 1013.7
20260504014018 53 248 1.0 2.0 0.00 0.00 0.00 46 1013.6
20260504013518 54 248 1.0 3.0 0.00 0.00 0.00 45 1013.6
20260504013018 54 248 1.0 3.0 0.00 0.00 0.00 45 1013.6
20260504012517 54 248 1.0 3.0 0.00 0.00 0.00 44 1013.5
20260504012018 54 0.0 2.0 0.00 0.00 0.00 44 1013.4
20260504011518 54 248 1.0 2.0 0.00 0.00 0.00 44 1013.3
20260504011018 54 248 1.0 2.0 0.00 0.00 0.00 44 1013.2
20260504010517 54 0.0 2.0 0.00 0.00 0.00 43 1013.1
20260504010018 54 0.0 2.0 0.00 0.00 0.00 43 1013.2
20260504005518 54 0.0 1.0 0.00 0.00 0.00 43 1013.0
20260504005018 54 0.0 1.0 0.00 0.00 0.00 43 1013.1
20260504004518 55 0.0 2.0 0.00 0.00 0.00 43 1012.9
20260504004018 55 0.0 1.0 0.00 0.00 0.00 42 1012.9
20260504003518 55 0.0 1.0 0.00 0.00 0.00 42 1012.9
20260504003017 55 0.0 1.0 0.00 0.00 0.00 41 1012.8
20260504002517 55 0.0 1.0 0.00 0.00 0.00 41 1012.7
20260504002017 56 0.0 1.0 0.00 0.00 0.00 41 1012.6
20260504001518 56 0.0 2.0 0.00 0.00 0.00 40 1012.6
20260504001018 56 0.0 2.0 0.00 0.00 0.00 39 1012.6
20260504000518 57 0.0 1.0 0.00 0.00 0.00 39 1012.6
20260504000018 57 0.0 0.0 0.00 0.00 0.00 38 1012.5
20260503235820 58 0.0 1.0 0.00 0.00 0.00 37 1012.4
20260503235518 58 0.0 1.0 0.00 0.00 0.00 37 1012.4
20260503235017 58 0.0 2.0 0.00 0.00 0.00 37 1012.3
20260503234518 59 0.0 2.0 0.00 0.00 0.00 36 1012.2
20260503234017 59 0.0 2.0 0.00 0.00 0.00 36 1012.3
20260503233517 59 315 1.0 3.0 0.00 0.00 0.00 35 1012.3
20260503233018 59 315 1.0 2.0 0.00 0.00 0.00 34
20260503232517 60 315 2.0 5.0 0.00 0.00 0.00 34
20260503232018 60 315 2.0 5.0 0.00 0.00 0.00 34
20260503231518 60 315 1.0 4.0 0.00 0.00 0.00 33
20260503231018 60 315 1.0 4.0 0.00 0.00 0.00 33
20260503230517 60 315 1.0 3.0 0.00 0.00 0.00 33
20260503230018 60 338 2.0 5.0 0.00 0.00 0.00 32
20260503225518 61 315 2.0 6.0 0.00 0.00 0.00 32
20260503225018 60 315 2.0 7.0 0.00 0.00 0.00 32
20260503224517 60 315 3.0 6.0 0.00 0.00 0.00 32
20260503224017 60 315 3.0 6.0 0.00 0.00 0.00 33
20260503223518 60 315 3.0 7.0 0.00 0.00 0.00 33
20260503223018 60 315 2.0 6.0 0.00 0.00 0.00 32 1011.9
20260503222517 60 338 3.0 5.0 0.00 0.00 0.00 32 1011.9
20260503222346 60 315 3.0 6.0 0.00 0.00 0.00 32 1011.9
20260503222017 60 315 3.0 6.0 0.00 0.00 0.00 32 1011.9
20260503221520 60 315 3.0 10.0 0.00 0.00 0.00 33 1011.8
20260503221517 60 315 3.0 8.0 0.00 0.00 0.00 32 1011.9
20260503221017 60 315 3.0 10.0 0.00 0.00 0.00 33 1011.8
20260503220518 60 315 4.0 8.0 0.00 0.00 0.00 33 1012.0
20260503220149 60 338 2.0 6.0 0.00 0.00 0.00 33 1012.0
20260503220032 59 315 3.0 9.0 0.00 0.00 0.00 33 1012.1
20260503215523 59 338 3.0 6.0 0.00 0.00 0.00 32 1012.1
20260503215517 59 315 3.0 9.0 0.00 0.00 0.00 33 1012.1
20260503215017 59 338 3.0 6.0 0.00 0.00 0.00 32 1012.1
20260503215014 59 315 2.0 8.0 0.00 0.00 0.00 32 1012.1
20260503214517 59 315 2.0 8.0 0.00 0.00 0.00 32 1012.1
20260503214451 59 315 4.0 11.0 0.00 0.00 0.00 32 1012.1
20260503214029 59 315 3.0 7.0 0.00 0.00 0.00 33 1012.2
20260503214017 59 315 4.0 11.0 0.00 0.00 0.00 32 1012.1
20260503213518 59 315 3.0 7.0 0.00 0.00 0.00 33 1012.2
20260503213515 59 338 4.0 9.0 0.00 0.00 0.00 33 1012.0
20260503213018 59 338 4.0 9.0 0.00 0.00 0.00 33 1012.0
20260503212517 59 315 3.0 9.0 0.00 0.00 0.00 34 1012.1
20260503212017 59 315 5.0 11.0 0.00 0.00 0.00 32 1012.1
20260503211517 59 338 4.0 10.0 0.00 0.00 0.00 33 1012.0
20260503211018 59 315 4.0 8.0 0.00 0.00 0.00 33 1012.1
20260503210517 59 338 4.0 11.0 0.00 0.00 0.00 34 1012.3
20260503210017 59 338 4.0 10.0 0.00 0.00 0.00 34 1012.0
20260503205517 58 315 4.0 11.0 0.00 0.00 0.00 34 1012.1
20260503205017 58 315 4.0 10.0 0.00 0.00 0.00 34 1012.0
20260503204518 59 315 6.0 12.0 0.00 0.00 0.00 33 1012.1
20260503204017 59 315 5.0 11.0 0.00 0.00 0.00 33 1012.1
20260503203517 59 315 4.0 11.0 0.00 0.00 0.00 34 1012.0
20260503203017 58 315 5.0 10.0 0.00 0.00 0.00 34 1012.0
20260503202517 59 315 6.0 11.0 0.00 0.00 0.00 33 1012.1
20260503202017 59 315 4.0 11.0 0.00 0.00 0.00 35 1012.2
20260503201517 58 315 5.0 12.0 0.00 0.00 0.00 35 1012.0
20260503201017 58 315 3.0 11.0 0.00 0.00 0.00 33 1012.1
20260503200917 58 338 3.0 9.0 0.00 0.00 0.00 35 1012.2
20260503200517 58 338 3.0 9.0 0.00 0.00 0.00 35 1012.2
20260503200017 58 315 4.0 8.0 0.00 0.00 0.00 35 1012.1
20260503195730 58 315 4.0 9.0 0.00 0.00 0.00 34 1012.2
20260503195517 58 315 4.0 9.0 0.00 0.00 0.00 34 1012.2
20260503195218 58 315 4.0 7.0 0.00 0.00 0.00 34 1012.3
20260503195017 58 315 4.0 7.0 0.00 0.00 0.00 34 1012.3
20260503194517 58 315 4.0 11.0 0.00 0.00 0.00 33 1012.3
20260503194018 58 315 4.0 9.0 0.00 0.00 0.00 35 1012.3
20260503193518 58 338 4.0 8.0 0.00 0.00 0.00 33 1012.3
20260503193017 58 338 4.0 8.0 0.00 0.00 0.00 34 1012.3
20260503192517 58 338 4.0 11.0 0.00 0.00 0.00 34 1012.2
20260503192017 58 315 5.0 12.0 0.00 0.00 0.00 34 1012.6
20260503191517 57 338 3.0 9.0 0.00 0.00 0.00 37 1012.5
20260503191017 57 315 3.0 8.0 0.00 0.00 0.00 36 1012.5
20260503190517 58 338 4.0 9.0 0.00 0.00 0.00 35 1012.4
20260503190017 57 315 3.0 11.0 0.00 0.00 0.00 36 1012.6